Regional Weather Roundup
Issued by NWS Goodland, KS

Home | Current Version | Previous Version | Graphics & Text | Print | Product List | Glossary On
Versions: 1 2 3 4 5 6 7 8 9 10 11 12 13 14 15 16 17 18 19 20 21 22 23 24 25 26 27 28 29 30 31 32 33 34 35 36 37 38 39 40 41 42 43 44 45 46 47 48 49 50
000
ASUS43 KGLD 290259
RWRGLD

GOODLAND FORECAST AREA HOURLY WEATHER ROUNDUP
NATIONAL WEATHER SERVICE GOODLAND KS
900 PM MDT FRI AUG 28 2015

...OFFICIAL OBSERVATIONS...

CITY           SKY/WX    TMP DP  RH WIND       PRES   REMARKS
GOODLAND KS    CLEAR     67  52  58 CALM      30.12R
HILL CITY KS   CLEAR     70  62  76 NE6       30.05R
IMPERIAL NEB   CLEAR     68  58  70 E5        30.10R
MCCOOK NEB     CLEAR     68  61  78 MISG      30.07R
AKRON CO       CLEAR     73  41  31 NE12      30.20R
BURLINGTON CO  CLEAR     68  47  46 NE6       30.17R
LIMON CO       CLEAR     58  47  66 N7        30.25R
$$

...UNOFFICIAL OBSERVATIONS...

CITY           SKY/WX    TMP DP  RH WIND       PRES   REMARKS
COLBY KS       CLEAR     70  59  68 NE8       30.11R
GOVE KS          N/A     74  32  21 MISG        N/A
LENORA KS        N/A     70  32  24 MISG        N/A
NORTON KS      CLEAR     68  59  73 N5        30.05R
SHARON SPRINGS   N/A     70  53  55 CALM        N/A
TRENTON NEB      N/A     69  32  25 NE6         N/A
KIT CARSON CO    N/A     69  44  41 MISG        N/A
YUMA CO          N/A     70  48  44 CALM        N/A
$$


USA.gov is the U.S. government's official web portal to all federal, state and local government web resources and services.